Location: Owatonna
(44.0840°N, 93.2260°W)
Time: 07:28:38
(UTC-05:00)

Tiangong 1 - Visible Passes

Search period start: 29 March 2015 00:00
Search period end: 08 April 2015 00:00
Orbit: 338 x 353 km, 42.8° (Epoch: 29 March)

Date Brightness Start Highest point End Pass type
(mag) Time Alt. Az. Time Alt. Az. Time Alt. Az.
29 Mar 1.1 21:14:58 10° W 21:17:47 60° SSW 21:17:47 60° SSW visible
30 Mar 1.0 20:02:52 10° W 20:05:48 69° S 20:08:45 10° E visible
30 Mar 2.8 21:38:43 10° W 21:40:24 26° WSW 21:40:24 26° WSW visible
31 Mar 1.1 20:26:26 10° W 20:29:21 58° S 20:31:29 16° ESE visible
31 Mar 4.0 22:02:35 10° WSW 22:02:54 12° WSW 22:02:54 12° WSW visible
01 Apr 1.9 20:49:56 10° W 20:52:41 36° SSW 20:53:53 24° SSE visible
02 Apr 2.9 21:13:35 10° WSW 21:15:47 19° SSW 21:16:10 18° SSW visible
04 Apr 3.2 20:24:06 10° WSW 20:26:10 17° SSW 20:28:11 10° SSE visible
